COSMOS 2251 DEB

Satellite information

Favourite Embed

Satellite Type and Status

DEBRISIN ORBIT

Key statistics

Satellite COSMOS 2251 DEB at a glance.

Uptime

11869

Days in orbit

Revolutions

≈ 14.2

Per day

Orbit

LEO

Low Earth Orbit

Inclination

74.1

Latest

Satellite identification and parameters

Extended collection of information and parameters for COSMOS 2251 DEB.

Object identification

Identified? True

Debris? True

Object name: COSMOS 2251 DEB

International designator: 1993-036AHR

Object number (NORAD): 35062

Object ID (CCSDS): 35062

Country: COMMONWEALTH OF INDEPENDENT STATES (CIS)

Current information (Y/N): Y

RCS size: SMALL

Orbital parameters

Period: 101.201 minutes

Inclination: 74.0784 deg

SMA: 7193.677 km

Apoapsis: 907.33 km

Periapsis: 723.753 km

RAAN: 96.9836 deg

Eccentricy: 0.01275957

Argument of periapsis: 97.3041 deg

Mean anomaly: 264.2628 deg

Mean motion: 14.22906612 rev/day

Mean motion (dot): 0.00006986 rev/day2

B* drag term: 0.0028656551 1/REarth

Two-line elements (TLE)

Creation date: Dec. 11, 2025, 3:54 a.m.

Reference frame: TEME

Reference center: EARTH

Epoch: Dec. 10, 2025, 3:42 p.m. UTC

TLE line 0: 0 COSMOS 2251 DEB

TLE line 1: 1 35062U 93036AHR 25344.65469255 .00006986 00000-0 28657-2 0 9996

TLE line 2: 2 35062 74.0784 96.9836 0127596 97.3041 264.2628 14.22906612854698

Live tracking on map

Real-time ground track for satellite COSMOS 2251 DEB.

In-orbit conjunctions

A list of the most updated potential collisions computed for object COSMOS 2251 DEB.

Target Orbit TCA Probability of collision Miss distance Type
FENGYUN 1C DEB SSO 2025-07-05 18:23:47 0.0001597011 36.0 (m) DEBRIS
FENGYUN 1C DEB SSO 2025-07-03 19:49:18 0.0003676239 126.0 (m) DEBRIS
NOAA 16 DEB SSO 2025-05-27 03:02:28 0.0001214206 87.0 (m) DEBRIS

Associated space launch

Military communications satellite. Destroyed in a collision with Iridium 33.

COSMOS 2251 DEB was lifted into orbit during the mission ‘Kosmos-3M | Strela-2M 51’, on board a Kosmos-3M space rocket.

The launch took place on June 16, 1993, 4:17 a.m. from 132/1 (132L).

For more information about the launch, click the button.

Launch to space Kosmos-3M | Strela-2M 51
Kosmos-3M | Strela-2M 51

Agency: N/A

Status: Launch Successful

Launch date: June 16, 1993, 4:17 a.m. UTC

Rocket: Kosmos-3M

Launch pad: 132/1 (132L)

Location: Plesetsk Cosmodrome, Russian Federation

...

Latest news about this satellite

There are no fresh news available about this satellite. Check back as we update our databases every day.


Newsletter sign-up

Weekly statistics, charts and insights to help you stay on top of the space industry.